Weather History for St. Francis, KS

Change the Weather History Date:

Thursday, August 29, 2013

  Actual Average Record
Temperature  
Mean Temperature 80 °F -  
Max Temperature 103 °F 88 °F 103 °F (2013)
Min Temperature 58 °F 58 °F 53 °F (2014)
Cooling Degree Days 15    
Growing Degree Days 30 (Base 50)    
Moisture  
Dew Point 41 °F    
Average Humidity 34    
Maximum Humidity 79    
Minimum Humidity 5    
Precipitation  
Precipitation 0.00 in - - ()
Sea Level Pressure  
Sea Level Pressure 30.03 in    
Wind  
Wind Speed 7 mph (SSW)    
Max Wind Speed 13 mph    
Max Gust Speed -    
Visibility 10 miles    
Events      
Averages and records for this station are not official NWS values.
T = Trace of Precipitation, MM = Missing Value Source: NWS Daily Summary

Daily Weather History Graph

Daily Weather History Graph

Search for Another Location

Airport:

Trip Planner

Search our weather history database for the weather conditions in past years. The results will help you decide how hot, cold, wet, or windy it might be!

Date:

Astronomy

Aug. 29, 2013 Rise Set
Actual Time 7:12 AM CDT 8:22 PM CDT
Civil Twilight 6:44 AM CDT 8:50 PM CDT
Nautical Twilight 6:11 AM CDT 9:23 PM CDT
Astronomical Twilight 5:36 AM CDT 9:58 PM CDT
Moon 1:06 AM CDT (8/29) 3:52 PM CDT (8/29)
Length of Visible Light 14h 05m
Length of Day
13h 09m
Last Quarter, 38% of the Moon is Illuminated
Aug 29
Last Quarter
Sep 5
New
Sep 12
First Quarter
Sep 19
Full
Sep 26
Last Quarter

Hourly Weather History & Observations

Time (CDT) Temp. Dew Point Humidity Pressure Visibility Wind Dir Wind Speed Gust Speed Precip Events Conditions
12:15 AM 72.7 °F 52.0 °F 48% 30.05 in 10.0 mi SE 11.5 mph - N/A   Clear
12:35 AM 72.0 °F 52.2 °F 50% 30.05 in 10.0 mi SE 11.5 mph - N/A   Clear
12:55 AM 71.2 °F 52.3 °F 51% 30.05 in 10.0 mi SE 9.2 mph - N/A   Clear
1:15 AM 70.3 °F 52.9 °F 54% 30.04 in 10.0 mi SE 10.4 mph - N/A   Clear
1:35 AM 70.7 °F 52.9 °F 53% 30.04 in 10.0 mi SSE 11.5 mph - N/A   Clear
1:55 AM 70.2 °F 53.4 °F 55% 30.04 in 10.0 mi SSE 6.9 mph - N/A   Clear
2:15 AM 69.1 °F 53.4 °F 57% 30.04 in 10.0 mi Calm Calm - N/A   Clear
2:35 AM 67.5 °F 53.6 °F 61% 30.03 in 10.0 mi SSE 5.8 mph - N/A   Clear
2:55 AM 67.5 °F 53.6 °F 61% 30.03 in 10.0 mi Calm Calm - N/A   Clear
3:15 AM 65.7 °F 53.4 °F 65% 30.03 in 10.0 mi Calm Calm - N/A   Clear
3:35 AM 64.4 °F 53.1 °F 67% 30.03 in 10.0 mi NE 3.5 mph - N/A   Clear
3:55 AM 65.3 °F 53.6 °F 66% 30.03 in 10.0 mi South 4.6 mph - N/A   Clear
4:15 AM 66.2 °F 53.6 °F 64% 30.03 in 10.0 mi South 5.8 mph - N/A   Clear
4:35 AM 64.6 °F 53.6 °F 68% 30.03 in 10.0 mi South 5.8 mph - N/A   Clear
4:55 AM 64.6 °F 53.2 °F 67% 30.03 in 10.0 mi SSW 4.6 mph - N/A   Clear
5:15 AM 63.0 °F 53.1 °F 70% 30.03 in 10.0 mi SSW 5.8 mph - N/A   Clear
5:35 AM 62.6 °F 53.2 °F 71% 30.03 in 10.0 mi SSW 5.8 mph - N/A   Clear
5:55 AM 60.4 °F 52.7 °F 76% 30.03 in 10.0 mi SSW 5.8 mph - N/A   Clear
6:15 AM 60.3 °F 52.7 °F 76% 30.03 in 10.0 mi SSW 5.8 mph - N/A   Clear
6:35 AM 60.4 °F 52.7 °F 76% 30.03 in 10.0 mi SSW 6.9 mph - N/A   Clear
6:55 AM 60.1 °F 52.7 °F 77% 30.03 in 10.0 mi SSW 5.8 mph - N/A   Clear
7:15 AM 59.0 °F 52.2 °F 78% 30.04 in 10.0 mi SSW 5.8 mph - N/A   Clear
7:35 AM 58.6 °F 52.0 °F 79% 30.05 in 10.0 mi SW 6.9 mph - N/A   Clear
7:55 AM 59.4 °F 52.7 °F 79% 30.05 in 10.0 mi SW 3.5 mph - N/A   Clear
8:15 AM 63.5 °F 52.3 °F 67% 30.05 in 10.0 mi WSW 9.2 mph - N/A   Clear
8:35 AM 66.0 °F 51.3 °F 59% 30.05 in 10.0 mi SW 10.4 mph - N/A   Clear
8:55 AM 69.8 °F 50.2 °F 50% 30.06 in 10.0 mi WSW 10.4 mph - N/A   Clear
9:15 AM 71.8 °F 49.8 °F 46% 30.07 in 10.0 mi WSW 9.2 mph - N/A   Clear
9:35 AM 75.6 °F 48.4 °F 38% 30.06 in 10.0 mi WSW 8.1 mph - N/A   Clear
9:55 AM 79.3 °F 46.0 °F 31% 30.06 in 10.0 mi West 8.1 mph - N/A   Clear
10:15 AM 83.5 °F 41.4 °F 23% 30.06 in 10.0 mi West 6.9 mph - N/A   Clear
10:35 AM 85.5 °F 39.4 °F 20% 30.07 in 10.0 mi West 5.8 mph - N/A   Clear
10:55 AM 88.0 °F 38.8 °F 18% 30.06 in 10.0 mi WSW 3.5 mph - N/A   Clear
11:15 AM 89.8 °F 37.0 °F 16% 30.07 in 10.0 mi SW 4.6 mph - N/A   Clear
11:35 AM 91.0 °F 37.2 °F 15% 30.06 in 10.0 mi SW 3.5 mph - N/A   Clear
11:55 AM 92.5 °F 36.9 °F 14% 30.06 in 10.0 mi SE 4.6 mph - N/A   Clear
12:15 PM 94.1 °F 36.0 °F 13% 30.05 in 10.0 mi WSW 9.2 mph - N/A   Clear
12:35 PM 95.9 °F 35.4 °F 12% 30.05 in 10.0 mi SW 12.7 mph - N/A   Clear
12:55 PM 97.0 °F 35.2 °F 12% 30.04 in 10.0 mi SW 6.9 mph - N/A   Clear
1:15 PM 98.6 °F 33.6 °F 10% 30.03 in 10.0 mi SSW 8.1 mph - N/A   Clear
1:35 PM 98.2 °F 31.8 °F 10% 30.03 in 10.0 mi SW 8.1 mph - N/A   Clear
1:55 PM 98.2 °F 29.5 °F 9% 30.03 in 10.0 mi SSW 5.8 mph - N/A   Clear
2:15 PM 98.6 °F 27.9 °F 8% 30.03 in 10.0 mi North 3.5 mph - N/A   Clear
2:35 PM 100.0 °F 28.0 °F 8% 30.03 in 10.0 mi SW 4.6 mph - N/A   Clear
2:55 PM 100.6 °F 27.7 °F 8% 30.02 in 10.0 mi NW 6.9 mph - N/A   Clear
3:15 PM 100.8 °F 27.1 °F 7% 30.01 in 10.0 mi NE 6.9 mph - N/A   Clear
3:35 PM 101.8 °F 26.2 °F 7% 30.00 in 10.0 mi SW 8.1 mph - N/A   Clear
3:55 PM 100.8 °F 25.7 °F 7% 29.99 in 10.0 mi Calm Calm - N/A   Clear
4:15 PM 100.4 °F 25.3 °F 7% 29.99 in 10.0 mi NNW 4.6 mph - N/A   Clear
4:35 PM 102.4 °F 23.4 °F 6% 29.99 in 10.0 mi North 3.5 mph - N/A   Clear
4:55 PM 101.7 °F 23.4 °F 6% 29.99 in 10.0 mi NNE 5.8 mph - N/A   Clear
5:15 PM 102.6 °F 19.9 °F 5% 29.99 in 10.0 mi Calm Calm - N/A   Clear
5:35 PM 102.2 °F 19.9 °F 5% 29.99 in 10.0 mi North 5.8 mph - N/A   Clear
5:55 PM 101.5 °F 22.6 °F 6% 29.99 in 10.0 mi NE 4.6 mph - N/A   Clear
6:15 PM 101.5 °F 23.7 °F 6% 29.99 in 10.0 mi NNE 8.1 mph - N/A   Clear
6:35 PM 100.8 °F 24.8 °F 7% 29.99 in 10.0 mi NNE 6.9 mph - N/A   Clear
6:55 PM 100.4 °F 25.9 °F 7% 29.99 in 10.0 mi North 3.5 mph - N/A   Clear
7:15 PM 98.8 °F 31.1 °F 9% 29.99 in 10.0 mi North 10.4 mph - N/A   Clear
7:35 PM 96.3 °F 31.5 °F 10% 29.99 in 10.0 mi North 9.2 mph - N/A   Clear
7:55 PM 92.8 °F 33.4 °F 12% 30.00 in 10.0 mi NNE 6.9 mph - N/A   Clear
8:15 PM 88.9 °F 35.4 °F 15% 30.00 in 10.0 mi NNE 4.6 mph - N/A   Clear
8:35 PM 87.6 °F 35.2 °F 16% 30.01 in 10.0 mi NNE 3.5 mph - N/A   Clear
8:55 PM 87.1 °F 33.8 °F 15% 30.01 in 10.0 mi Calm Calm - N/A   Clear
9:15 PM 84.6 °F 35.4 °F 17% 30.02 in 10.0 mi SSE 3.5 mph - N/A   Clear
9:35 PM 84.7 °F 35.2 °F 17% 30.03 in 10.0 mi SSW 6.9 mph - N/A   Clear
9:55 PM 82.8 °F 37.2 °F 20% 30.03 in 10.0 mi South 4.6 mph - N/A   Clear
10:15 PM 78.1 °F 38.5 °F 24% 30.04 in 10.0 mi Calm Calm - N/A   Clear
10:35 PM 77.9 °F 40.1 °F 26% 30.03 in 10.0 mi South 9.2 mph - N/A   Clear
10:55 PM 75.6 °F 41.4 °F 29% 30.03 in 10.0 mi SSE 8.1 mph - N/A   Clear
11:15 PM 75.2 °F 40.6 °F 29% 30.04 in 10.0 mi WSW 4.6 mph - N/A   Clear
11:35 PM 74.3 °F 42.4 °F 32% 30.04 in 10.0 mi South 3.5 mph - N/A   Clear
11:55 PM 74.1 °F 43.5 °F 33% 30.04 in 10.0 mi South 8.1 mph - N/A   Clear